Location: Praha
(50.0830°N, 14.4670°E)
Time: 16:48:43
(UTC+02:00)

ISS - Pass Details

Date: 08 October 2019
Orbit: 411 x 421 km, 51.6° (Epoch: 18 October)

Event Time Altitude Azimuth Distance (km) Brightness Sun altitude
Rises 19:43:41 0° 283° (WNW) 2,347 2.0 -13.2°
Reaches altitude 10° 19:46:13 10° 264° (W) 1,481 0.4 -13.6°
Maximum altitude 19:48:32 18° 220° (SW) 1,096 -1.3 -14.0°
Drops below altitude 10° 19:50:51 10° 175° (S) 1,473 -1.1 -14.4°
Enters shadow 19:51:49 - 165° (SSE) 1,775 -0.8 -14.5°
